STARLINK-32330, 61850

Orbit data source: Space-Track

STARLINK-32330, 61850 is a payload satellite owned by SpaceX/Seattle (US) in LEO that was launched on Thu, 07 Nov 2024 UTC via an FALCON 9 launch vehicle from the Air Force Eastern Test Range (AFETR). Payload-class satellites include a variety of spacecraft equipped with specific instruments for various scientific and technological missions. These include communications satellites like Starlink; space stations such as the ISS; scientific satellites like the Hubble; Earth observation satellites from companies like Planet Labs, Umbra, and HawkEye 360; GPS; miniature CubeSats for education and research; and military/defense satellites.

Loading next visibility...
Identifier
61850, 2024-202F
Orbit
LEO
Country
Flag of USUS
Related business
Manufacturer
SpaceX/Seattle
Mission
Operational Commercial Communications
Bus & Motor
STARLINK V2M, Unknown motor
Mass
730 kg wet, ~700 kg dry
Launch date (UTC)
2024-11-07 (1 year ago)
Launch vehicle
FALCON 9
Launch site
Air Force Eastern Test Range (AFETR)
Object type
Payload
Rocket body
Debris
Shape & HBR
Box + 2 Pan, 17.7 m
Radar Cross Section
33.884 m², Large (>1 m²)

Expand to show TLE details & history
Last TLE update: 6 hours ago

TLE from 6 hours ago
0 STARLINK-32330
1 61850U 24202F   26036.46615132  .00003010  00000-0  11890-3 0  9991
2 61850  43.0017  59.6109 0000763 261.3500  98.7265 15.27570532 70416
Epoch: 2026-02-05T11:11Z
TLE epoch observation values (Epoch: 2026-02-05T11:11:15.474Z)
Latitude
-0.00002°
Longitude
116.17843°
Altitude
482.933 km
Speed
7.626 km/s
True Right ascension
03h 58m 26s
True Declination
0° 00' 00"
Sunlit
Object was in daylight at epoch
Visualization orbit readout
Latitude
Unknown
Longitude
Unknown
Altitude
Unknown
Speed
Unknown
Apparent Right ascension
Unknown
Apparent Declination
Unknown
Sunlit
N/A
Visualization observer readout
Local Sidereal Time
19:30:12
Azimuth
Unknown
Elevation
Unknown
Doppler factor
Unknown
Orbital elements
Apogee altitude
485.546 km
Perigee altitude
484.499 km
Semi-major axis
6,863.159 km
Eccentricity
0.00008
Inclination
43.0017°
RAAN
59.6109°
Arg. of periapsis
261.35°
True anomaly
98.73514°
Mean anomaly
98.7265°
Eccentric anomaly
98.73082°
Mean motion
3.81731 °/min
Orbital period
94.31 mins
BSTAR
0.0001189
Loading maneuver chart data...
Computing Atmospheric mass density...
Loading historical data...
Loading historical data...
Loading historical data...
Loading historical data...
Loading historical data...
Loading historical data...
Loading historical data...

Documentation

Showing up to 5 results
|